Tracking 31080 objects as of 20-Jul-2025
HD Live streaming from Space Station
objects crossing your sky now

DELTA 1 DEB

Track DELTA 1 DEB now!
10-day predictions


NORAD ID: 10763
Int'l Code: 1976-077BL
Perigee: 1,504.0 km
Apogee: 1,576.1 km
Inclination: 102.2 °
Period: 116.7 minutes
Semi major axis: 7911 km
RCS: 0.0794 m2 (small)
Launch date: July 29, 1976
Source: United States (US)
Launch site: AIR FORCE WESTERN TEST RANGE (AFWTR)

Note: This is SATELLITE DEBRIS
Your satellite tracking list
Your tracking list is empty




NASA's NSSDC Master Catalog

Two Line Element Set (TLE):
1 10763U 76077BL  25200.85753154 -.00000001  00000-0  35574-3 0  9990
2 10763 102.1921 167.8221 0045565 272.5043 118.1599 12.33829601205499
Source of the keplerian elements: AFSPC